Sioux City, IA

4:51 AM CDT on July 27, 2017 (GMT -0500)
Sioux Gateway

Weather History for KSUX - June, 2013

Change the Weather History Date:

Wednesday, June 12, 2013

  Actual Average Record
Temperature  
Mean Temperature 70 °F 70 °F  
Max Temperature 82 °F 81 °F 99 °F (1952)
Min Temperature 58 °F 58 °F 45 °F (1995)
Degree Days  
Heating Degree Days 0 1  
Month to date heating degree days 40 18  
Since 1 June heating degree days 40 18  
Since 1 July heating degree days 7092 6852  
Cooling Degree Days 5 6  
Month to date cooling degree days 17 53  
Year to date cooling degree days 73 117  
Since 1 June cooling degree days 17 53  
Growing Degree Days 22 (Base 50)    
Moisture  
Dew Point 64 °F    
Average Humidity 69    
Maximum Humidity 84    
Minimum Humidity 53    
Precipitation  
Precipitation T in 0.14 in 1.32 in (1947)
Month to date precipitation 1.31 1.62  
Year to date precipitation 14.64 11.60  
Snow  
Snow 0.00 in 0.00 in 0.00 in ()
Month to date snowfall 0.0 0.0  
Since 1 June snowfall 0.0 0.0  
Since 1 July snowfall 45.1 34.8  
Snow Depth 0.00 in    
Sea Level Pressure  
Sea Level Pressure 29.78 in    
Wind  
Wind Speed 14 mph (North)    
Max Wind Speed 31 mph    
Max Gust Speed 38 mph    
Visibility 10 miles    
Events Rain , Thunderstorm    
T = Trace of Precipitation, MM = Missing Value Source: NWS Daily Summary

Daily Weather History Graph

Daily Weather History Graph

Search for Another Location

Airport or City:

Trip Planner

Search our weather history database for the weather conditions in past years. The results will help you decide how hot, cold, wet, or windy it might be!

Date:

Astronomy

Jun. 12, 2013 Rise Set
Actual Time 5:48 AM CDT 9:03 PM CDT
Civil Twilight 5:13 AM CDT 9:37 PM CDT
Nautical Twilight 4:28 AM CDT 10:22 PM CDT
Astronomical Twilight 3:34 AM CDT 11:17 PM CDT
Moon 9:31 AM CDT (6/12) 11:35 PM CDT (6/12)
Length of Visible Light 16h 24m
Length of Day
15h 15m
Waxing Crescent, 14% of the Moon is Illuminated
Jun 12
Waxing Crescent
Jun 16
First Quarter
Jun 23
Full
Jun 29
Last Quarter
Jul 8
New

Hourly Weather History & Observations

Time (CDT) Temp. Heat Index Dew Point Humidity Pressure Visibility Wind Dir Wind Speed Gust Speed Precip Events Conditions
12:52 AM 75.9 °F - 66.9 °F 74% 29.69 in 10.0 mi ESE 11.5 mph - N/A   Clear
1:22 AM 77.0 °F - 66.2 °F 69% 29.73 in 10.0 mi East 9.2 mph - N/A Thunderstorm Partly Cloudy
1:52 AM 75.9 °F - 66.9 °F 74% 29.70 in 10.0 mi Calm Calm - 0.00 in Thunderstorm Scattered Clouds
2:00 AM 75.2 °F - 66.2 °F 73% 29.73 in 10.0 mi East 4.6 mph - N/A   Partly Cloudy
2:29 AM 75.2 °F - 66.2 °F 73% 29.72 in 10.0 mi North 9.2 mph - N/A Thunderstorm Clear
2:44 AM 75.2 °F - 66.2 °F 73% 29.73 in 10.0 mi ESE 10.4 mph - 0.00 in Rain Light Rain
2:52 AM 75.0 °F - 66.9 °F 76% 29.70 in 10.0 mi East 9.2 mph - 0.00 in   Clear
3:45 AM 73.4 °F - 68.0 °F 83% 29.66 in 10.0 mi ENE 16.1 mph - 0.00 in Rain , Thunderstorm Light Rain
3:52 AM 73.9 °F - 68.0 °F 82% 29.69 in 10.0 mi South 10.4 mph 17.3 mph 0.00 in Rain , Thunderstorm Light Rain
4:00 AM 73.4 °F - 68.0 °F 83% 29.72 in 10.0 mi East 5.8 mph - 0.00 in Rain Light Rain
4:52 AM 72.0 °F - 68.0 °F 87% 29.60 in 10.0 mi ESE 19.6 mph 25.3 mph 0.00 in   Clear
5:52 AM 72.0 °F - 66.0 °F 81% 29.67 in 10.0 mi South 4.6 mph - N/A   Clear
6:03 AM 71.6 °F - 66.2 °F 83% 29.70 in 10.0 mi Calm Calm - N/A   Clear
6:52 AM 72.0 °F - 66.9 °F 84% 29.71 in 10.0 mi NNW 8.1 mph - N/A   Clear
7:52 AM 75.0 °F - 68.0 °F 79% 29.72 in 10.0 mi North 12.7 mph - N/A   Clear
8:52 AM 78.1 °F - 69.1 °F 74% 29.70 in 10.0 mi NNE 8.1 mph - N/A   Clear
9:52 AM 80.1 °F 83.2 °F 70.0 °F 71% 29.70 in 10.0 mi NNE 5.8 mph - N/A   Clear
10:33 AM 80.6 °F 83.9 °F 69.8 °F 70% 29.75 in 10.0 mi NNW 8.1 mph - N/A   Mostly Cloudy
10:52 AM 81.0 °F 84.1 °F 69.1 °F 67% 29.73 in 10.0 mi NW 10.4 mph - N/A   Mostly Cloudy
11:52 AM 79.0 °F - 69.1 °F 72% 29.77 in 10.0 mi NW 24.2 mph 27.6 mph N/A   Mostly Cloudy
12:52 PM 75.9 °F - 66.0 °F 71% 29.80 in 10.0 mi NNW 20.7 mph 29.9 mph N/A   Mostly Cloudy
1:52 PM 77.0 °F - 64.0 °F 64% 29.81 in 10.0 mi NNW 24.2 mph - N/A   Mostly Cloudy
2:48 PM 78.8 °F - 62.6 °F 57% 29.85 in 10.0 mi NW 21.9 mph 31.1 mph N/A   Mostly Cloudy
2:52 PM 78.1 °F - 62.1 °F 58% 29.82 in 10.0 mi NNW 20.7 mph 27.6 mph N/A   Overcast
3:52 PM 78.1 °F - 60.1 °F 54% 29.83 in 10.0 mi NNW 23.0 mph 31.1 mph N/A   Mostly Cloudy
4:52 PM 75.0 °F - 57.0 °F 53% 29.84 in 10.0 mi NNW 27.6 mph 34.5 mph N/A   Overcast
5:52 PM 73.9 °F - 55.9 °F 53% 29.87 in 10.0 mi NW 21.9 mph 31.1 mph N/A   Mostly Cloudy
6:52 PM 69.1 °F - 55.0 °F 61% 29.92 in 10.0 mi North 23.0 mph 28.8 mph N/A   Overcast
7:52 PM 66.0 °F - 53.1 °F 63% 29.96 in 10.0 mi North 15.0 mph - N/A   Mostly Cloudy
8:52 PM 64.0 °F - 52.0 °F 65% 29.99 in 10.0 mi North 13.8 mph - N/A   Partly Cloudy
9:52 PM 63.0 °F - 52.0 °F 67% 30.00 in 10.0 mi NNW 10.4 mph - N/A   Clear
10:52 PM 62.1 °F - 53.1 °F 72% 30.02 in 10.0 mi NW 11.5 mph - N/A   Clear
11:52 PM 60.1 °F - 53.1 °F 78% 30.04 in 10.0 mi WNW 6.9 mph - N/A   Clear